Greenville Downtown, SC

8:10 PM EST on December 14, 2017 (GMT -0500)
Greenville Downtown

Weather History for KGMU - July, 2013

Change the Weather History Date:

Sunday, July 14, 2013

  Actual Average Record
Temperature  
Mean Temperature 76 °F -  
Max Temperature 80 °F 87 °F 99 °F (2008)
Min Temperature 72 °F 68 °F 62 °F (1999)
Cooling Degree Days 10    
Growing Degree Days 26 (Base 50)    
Moisture  
Dew Point 70 °F    
Average Humidity 87    
Maximum Humidity 94    
Minimum Humidity 72    
Precipitation  
Precipitation 0.40 in - - ()
Sea Level Pressure  
Sea Level Pressure 30.21 in    
Wind  
Wind Speed 8 mph (East)    
Max Wind Speed 14 mph    
Max Gust Speed 25 mph    
Visibility 9 miles    
Events Rain    
Averages and records for this station are not official NWS values.
T = Trace of Precipitation, MM = Missing Value Source: NWS Daily Summary

Daily Weather History Graph

Daily Weather History Graph

Search for Another Location

Airport or City:

Trip Planner

Search our weather history database for the weather conditions in past years. The results will help you decide how hot, cold, wet, or windy it might be!

Date:

Astronomy

Jul. 14, 2013 Rise Set
Actual Time 6:26 AM EDT 8:43 PM EDT
Civil Twilight 5:57 AM EDT 9:12 PM EDT
Nautical Twilight 5:22 AM EDT 9:47 PM EDT
Astronomical Twilight 4:43 AM EDT 10:26 PM EDT
Moon 12:25 PM EDT (7/14) No Moon Set
Length of Visible Light 15h 14m
Length of Day
14h 16m
Waxing Crescent, 35% of the Moon is Illuminated
Jul 14
Waxing Crescent
Jul 15
First Quarter
Jul 22
Full
Jul 29
Last Quarter
Aug 6
New

Hourly Weather History & Observations

Time (EDT) Temp. Dew Point Humidity Pressure Visibility Wind Dir Wind Speed Gust Speed Precip Events Conditions
12:09 AM 73.4 °F 69.8 °F 88% 30.13 in 10.0 mi NE 8.1 mph - N/A   Overcast
12:53 AM 73.9 °F 69.1 °F 85% 30.11 in 10.0 mi NE 6.9 mph - N/A   Overcast
1:38 AM 73.4 °F 69.8 °F 88% 30.14 in 10.0 mi ENE 5.8 mph - N/A   Overcast
1:53 AM 73.9 °F 70.0 °F 87% 30.11 in 10.0 mi ENE 4.6 mph - N/A   Overcast
2:53 AM 73.9 °F 71.1 °F 91% 30.11 in 10.0 mi East 6.9 mph - 0.00 in Rain Light Rain
3:39 AM 73.4 °F 71.6 °F 94% 30.14 in 9.0 mi ESE 8.1 mph - 0.01 in Rain Light Rain
3:53 AM 73.0 °F 71.1 °F 93% 30.11 in 10.0 mi ESE 8.1 mph - 0.01 in   Overcast
4:53 AM 73.0 °F 71.1 °F 93% 30.12 in 10.0 mi ESE 5.8 mph - 0.00 in   Overcast
5:00 AM 73.4 °F 71.6 °F 94% 30.15 in 10.0 mi ESE 5.8 mph - N/A   Overcast
5:08 AM 73.4 °F 71.6 °F 94% 30.15 in 10.0 mi ESE 8.1 mph - N/A   Mostly Cloudy
5:53 AM 73.0 °F 70.0 °F 90% 30.14 in 10.0 mi ESE 5.8 mph - N/A   Mostly Cloudy
6:15 AM 73.4 °F 69.8 °F 88% 30.18 in 10.0 mi ESE 6.9 mph - N/A   Scattered Clouds
6:35 AM 73.4 °F 69.8 °F 88% 30.19 in 10.0 mi East 8.1 mph - N/A   Mostly Cloudy
6:53 AM 73.0 °F 70.0 °F 90% 30.17 in 10.0 mi ESE 8.1 mph - N/A   Overcast
7:53 AM 73.0 °F 70.0 °F 90% 30.18 in 10.0 mi East 8.1 mph - N/A   Overcast
8:10 AM 73.4 °F 69.8 °F 88% 30.21 in 2.0 mi ESE 5.8 mph - 0.02 in Rain Light Rain
8:20 AM 73.4 °F 71.6 °F 94% 30.21 in 5.0 mi ESE 6.9 mph - 0.03 in Rain Light Rain
8:29 AM 73.4 °F 71.6 °F 94% 30.22 in 10.0 mi ESE 8.1 mph - 0.03 in   Overcast
8:41 AM 73.4 °F 71.6 °F 94% 30.22 in 10.0 mi East 6.9 mph - 0.03 in   Overcast
8:53 AM 73.9 °F 71.1 °F 91% 30.19 in 10.0 mi East 8.1 mph - 0.03 in   Overcast
9:26 AM 73.4 °F 69.8 °F 88% 30.23 in 2.5 mi ESE 11.5 mph 19.6 mph 0.02 in Rain Light Rain
9:34 AM 73.4 °F 69.8 °F 88% 30.23 in 4.0 mi East 11.5 mph - 0.02 in Rain Light Rain
9:45 AM 73.4 °F 71.6 °F 94% 30.23 in 10.0 mi East 8.1 mph - 0.02 in Rain Light Rain
9:53 AM 75.0 °F 71.1 °F 87% 30.20 in 10.0 mi East 11.5 mph - 0.02 in   Overcast
10:16 AM 73.4 °F 69.8 °F 88% 30.24 in 10.0 mi East 10.4 mph - N/A   Overcast
10:26 AM 75.2 °F 69.8 °F 83% 30.24 in 10.0 mi East 9.2 mph - N/A   Overcast
10:33 AM 75.2 °F 69.8 °F 83% 30.24 in 10.0 mi East 9.2 mph - N/A   Mostly Cloudy
10:53 AM 75.9 °F 70.0 °F 82% 30.22 in 10.0 mi East 9.2 mph - N/A   Overcast
11:02 AM 75.2 °F 69.8 °F 83% 30.24 in 10.0 mi East 6.9 mph - N/A   Overcast
11:15 AM 77.0 °F 69.8 °F 78% 30.25 in 10.0 mi ESE 9.2 mph - N/A   Overcast
11:43 AM 75.2 °F 69.8 °F 83% 30.25 in 2.5 mi ESE 10.4 mph - 0.02 in Rain Heavy Rain
11:50 AM 75.2 °F 71.6 °F 89% 30.25 in 5.0 mi Variable 4.6 mph - 0.02 in Rain Light Rain
11:53 AM 75.9 °F 71.1 °F 85% 30.22 in 10.0 mi Variable 6.9 mph - 0.02 in   Overcast
12:53 PM 75.0 °F 71.1 °F 87% 30.23 in 10.0 mi ESE 10.4 mph - 0.05 in Rain Light Rain
1:53 PM 77.0 °F 70.0 °F 79% 30.23 in 10.0 mi East 11.5 mph - 0.00 in   Mostly Cloudy
2:32 PM 77.0 °F 69.8 °F 78% 30.26 in 10.0 mi SE 10.4 mph - N/A   Overcast
2:39 PM 75.2 °F 69.8 °F 83% 30.28 in 1.5 mi SE 13.8 mph 25.3 mph 0.12 in Rain Heavy Rain
2:53 PM 73.0 °F 70.0 °F 90% 30.25 in 3.0 mi ESE 8.1 mph - 0.24 in Rain Rain
3:53 PM 73.9 °F 70.0 °F 87% 30.23 in 10.0 mi ESE 9.2 mph - 0.01 in   Mostly Cloudy
3:58 PM 73.4 °F 69.8 °F 88% 30.25 in 10.0 mi East 8.1 mph - N/A   Mostly Cloudy
4:34 PM 73.4 °F 69.8 °F 88% 30.25 in 10.0 mi NE 8.1 mph - N/A   Scattered Clouds
4:53 PM 73.9 °F 70.0 °F 87% 30.22 in 10.0 mi NE 8.1 mph - N/A   Partly Cloudy
5:53 PM 79.0 °F 69.1 °F 72% 30.21 in 10.0 mi ENE 11.5 mph - N/A   Partly Cloudy
6:53 PM 73.9 °F 69.1 °F 85% 30.22 in 10.0 mi ENE 8.1 mph - 0.02 in   Scattered Clouds
7:53 PM 75.9 °F 70.0 °F 82% 30.23 in 10.0 mi NE 6.9 mph - N/A   Mostly Cloudy
8:53 PM 73.0 °F 68.0 °F 84% 30.24 in 10.0 mi NE 5.8 mph - N/A   Partly Cloudy
9:53 PM 72.0 °F 68.0 °F 87% 30.25 in 10.0 mi NNE 9.2 mph - N/A   Partly Cloudy
10:53 PM 73.0 °F 68.0 °F 84% 30.27 in 10.0 mi NE 5.8 mph - N/A   Mostly Cloudy
11:53 PM 73.0 °F 68.0 °F 84% 30.27 in 10.0 mi NE 8.1 mph - N/A   Overcast